Regional Weather Roundup
Issued by NWS

Home | Current Version | Previous Version | Graphics & Text | Print | Product List | Glossary Off
Versions: 1 2 3 4 5 6 7 8 9 10 11 12 13 14 15 16 17 18 19 20 21 22 23 24 25 26 27 28 29 30 31 32 33 34 35 36 37 38 39 40 41 42 43 44 45 46 47 48 49 50

000
ASUS43 KMPX 310610
RWRMN
WEATHER ROUNDUP FOR MINNESOTA
NATIONAL WEATHER SERVICE TWIN CITIES/CHANHASSEN MN
1200 AM CST SAT JAN 31 2015


NOTE: "FAIR" INDICATES FEW OR NO CLOUDS BELOW 12,000 FEET WITH NO
SIGNIFICANT WEATHER AND/OR OBSTRUCTIONS TO VISIBILITY. N/A MEANS
CURRENT SKY AND/OR WEATHER CONDITIONS ARE NOT AVAILABLE.

MNZ060>063-068>070-310700-
   Twin Cities Metro

CITY           SKY/WX    TMP DP  RH WIND       PRES   REMARKS
TWIN CITIES    PTCLDY    25  19  78 S5        30.15F WCI  19
6HR MIN TEMP:  24; 6HR MAX TEMP:  27;

ST PAUL        CLOUDY    23  19  85 S5        30.16F WCI  17
CRYSTAL        CLOUDY    23  19  85 SE3       30.13F
BLAINE         CLOUDY    28  23  80 S8        30.13F WCI  20
LAKEVILLE      CLEAR     25  19  80 CALM      30.14F
EDEN PRAIRIE   CLEAR     23  19  85 SW7       30.13F WCI  15
6HR MIN TEMP:  23; 6HR MAX TEMP:  26;

SOUTH ST PAUL  CLEAR     21  17  86 CALM      30.15F
LAKE ELMO      CLOUDY    25  21  86 S6        30.16F WCI  18
$$
MNZ001>005-007-008-013>017-022>024-027-028-310700-
   Northwest Minnesota

CITY           SKY/WX    TMP DP  RH WIND       PRES   REMARKS
BEMIDJI        CLOUDY    24  20  88 NW9       30.09S WCI  14
HALLOCK        CLOUDY    18  12  79 N17G24    30.26R WCI   2
ROSEAU         CLOUDY    19  14  79 NW16      30.18R WCI   5
WARROAD        CLOUDY    16  12  86 NW10      30.17R WCI   3
THIEF RVR FALL CLOUDY    19  18  93 NW15      30.17S WCI   5
CROOKSTON      CLOUDY    19  16  86 N18G26    30.21S WCI   4
FOSSTON        CLOUDY    19  18  93 NW15      30.14S WCI   5
DETROIT LAKES  CLOUDY    25  23  93 NW14      30.13R WCI  13
MOORHEAD       CLOUDY    27  25  93 N16       30.18R WCI  14
PARK RAPIDS    MOCLDY    20  17  88 NW5       30.09S WCI  13
MAHNOMEN       CLOUDY    22  19  87 NW13      30.14R WCI  10
$$
MNZ006-009>011-018-025>026-310700-
   North Central Minnesota

CITY           SKY/WX    TMP DP  RH WIND       PRES   REMARKS
BAUDETTE       CLOUDY    18  14  84 NW14      30.12R WCI   4
FLAG ISLAND    CLOUDY    12  10  92 NW20      30.15R WCI  -6
INTL FALLS     CLOUDY    15  10  80 W3        30.10S
6HR MIN TEMP:  12; 6HR MAX TEMP:  15; 6HR PCP: TRACE;

WASKISH        CLOUDY    19  16  86 CALM      30.12R
BIG FORK       CLOUDY    19  12  73 CALM      30.09F
LONGVILLE      CLOUDY    23  18  80 CALM      30.10S
GRAND RAPIDS   CLOUDY    19  12  73 CALM      30.08F
CRANE LAKE     CLOUDY    14  10  85 CALM      30.12S
ORR            CLOUDY    16   9  73 CALM      30.07S
COOK           CLOUDY    16  10  79 CALM      30.09S
WALKER         CLOUDY    24  19  83 W6        30.09S WCI  17
$$
MNZ012-019>021-037-310700-
   Northeast Minnesota

CITY           SKY/WX    TMP DP  RH WIND       PRES   REMARKS
DULUTH         CLOUDY    18   9  68 SW6       30.09F WCI  10
6HR MIN TEMP:  14; 6HR MAX TEMP:  18;

ELY            FLURRIES  12   9  85 SW3       30.08S
HIBBING        CLOUDY    17   7  64 CALM      30.09F
EVELETH        CLOUDY    18  10  73 CALM      30.10F
DULUTH HARBOR  CLOUDY    19  10  68 CALM      30.16F
TWO HARBORS    CLOUDY    19  10  68 CALM      30.09F
SILVER BAY     FLURRIES  18   9  68 CALM      30.10F
GRAND MARAIS     N/A     16  11  80 VRB5      30.14F WCI   9
G MARAIS ARPRT CLOUDY    10   5  79 CALM      30.04F
$$
MNZ029>031-032-039>041-046>048-054>057-064-310700-
   West Central Minnesota

CITY           SKY/WX    TMP DP  RH WIND       PRES   REMARKS
FERGUS FALLS   CLEAR     25  21  86 N9        30.16R WCI  15
WHEATON        CLEAR     25  21  86 NW9       30.18R WCI  15
MORRIS         CLEAR     25  23  93 NW9       30.12R WCI  15
ALEXANDRIA     CLEAR     20  18  92 W6        30.10S WCI  12
ELBOW LAKE     FAIR      23  21  93 NW8       30.11S WCI  13
WADENA         CLEAR     16  16 100 CALM      30.10R FOG
GLENWOOD       CLEAR     21  19  93 W7        30.10S FOG     WCI  13
APPLETON       CLEAR     23  21  93 W6        30.13S WCI  16
BENSON         CLEAR     19  18  93 W3        30.12S FOG
ORTONVILLE     CLEAR     28  27  93 NW9       30.13S WCI  20
MADISON        CLEAR     30  28  93 NW5       30.13S WCI  25
WILLMAR        FAIR      25  23  93 SW3       30.12F
$$
MNZ033>034-036-042>043-049>051-058-059-310700-
   Central Minnesota

CITY           SKY/WX    TMP DP  RH WIND       PRES   REMARKS
ST CLOUD       CLEAR     20  18  92 SE5       30.10F WCI  13
6HR MIN TEMP:  19; 6HR MAX TEMP:  25;

SAUK CENTRE    FAIR      19  19  98 CALM      30.09F
PAYNESVILLE    CLEAR     20  20 100 S3        30.10F
AITKIN         CLOUDY    27  19  74 CALM      30.08F
PINE RIVER     CLOUDY    25  19  80 CALM      30.12F
BRAINERD       CLOUDY    24  19  81 CALM      30.10F
STAPLES        CLEAR     16  14  93 CALM      30.09S
LONG PRAIRIE   FAIR      19  18  93 SW3       30.10S
LITTLE FALLS   CLEAR     19  18  93 CALM      30.11S
LITCHFIELD     CLEAR     25  25 100 CALM      30.12S
BUFFALO        CLEAR     23  20  89 S3        30.13F
MAPLE LAKE     CLEAR     23  22  96 CALM      30.12F
$$
MNZ037-044-045-052-053-310700-
   East Central Minnesota

CITY           SKY/WX    TMP DP  RH WIND       PRES   REMARKS
PRINCETON      MOCLDY    27  21  80 CALM      30.11F
MORA           CLOUDY    23  16  74 CALM      30.14F
CAMBRIDGE      CLOUDY    28  19  69 CALM      30.11F
RUSH CITY      CLOUDY    23  18  80 CALM      30.13F
MOOSE LAKE     CLOUDY    21  14  73 CALM      30.11F
HINCKLEY       CLOUDY    23  18  80 CALM      30.13F
CLOQUET        CLOUDY    19  10  68 S3        30.10F
MCGREGOR       CLOUDY    25  19  80 CALM      30.10F
$$
MNZ071>073-080-081-089-090-097-098-310700-
   Southwest Minnesota

CITY           SKY/WX    TMP DP  RH WIND       PRES   REMARKS
MONTEVIDEO     CLEAR     28  27  93 W3        30.13F
GRANITE FALLS  CLEAR     25  24  96 CALM      30.14F FOG
CANBY          CLEAR     30  27  88 W5        30.14R WCI  25
MARSHALL       CLEAR     30  25  80 W9        30.13F WCI  22
REDWOOD FALLS  CLEAR     24  21  88 SW5       30.12F WCI  18
OLIVIA         CLEAR     21  19  93 SW3       30.12F
PIPESTONE      CLEAR     28  27  93 SW5       30.10F WCI  23
WINDOM         CLEAR     28  27  93 SW8       30.13F WCI  20
WORTHINGTON    CLEAR     28  25  86 SW13      30.13S WCI  18
JACKSON        CLEAR     30  25  80 SW12      30.14F WCI  21
TRACY          CLEAR     31  28  86 SW10      30.12S WCI  23
SLAYTON        CLEAR     30  26  86 SW12      30.11S WCI  20
$$
MNZ065>067-074>077-082>085-091>093-310700-
   South Central Minnesota

CITY           SKY/WX    TMP DP  RH WIND       PRES   REMARKS
MANKATO        CLEAR     27  19  74 S7        30.14F WCI  19
NEW ULM        CLEAR     23  21  93 S3        30.13F
ST JAMES       CLEAR     28  25  86 S5        30.15S WCI  23
FAIRMONT       CLEAR     27  21  80 S10       30.13F WCI  17
GLENCOE        CLEAR     25  23  93 S6        30.12F WCI  18
FARIBAULT      CLEAR     25  19  80 S6        30.15F WCI  18
OWATONNA       CLEAR     25  19  80 S13G18    30.14F WCI  13
WASECA         CLEAR     25  21  86 S9        30.16F WCI  15
ALBERT LEA     CLEAR     27  21  80 S8        30.15F WCI  18
$$
MNZ078>079-086>088-094>096-310700-
   Southeast Minnesota

CITY           SKY/WX    TMP DP  RH WIND       PRES   REMARKS
ROCHESTER      CLEAR     22  15  75 S16       30.16F WCI   8
6HR MIN TEMP:  20; 6HR MAX TEMP:  22;

RED WING       CLEAR     18  14  86 CALM      30.17F
STANTON        CLEAR     28  21  75 SW10      30.14F WCI  18
DODGE CENTER   PTCLDY    23  18  80 SW9       30.14F WCI  13
WINONA         CLEAR     28  16  59 SW5       30.21F WCI  23
AUSTIN         CLEAR     21  18  86 S10       30.17F WCI  10
PRESTON        CLEAR     21  13  73 S13       30.18F WCI   8
$$
ABBREVIATIONS USED IN REMARKS
   TC - TEMPERATURES IN CELSIUS
  WCI - WIND CHILL INDEX
   HX - HEAT INDEX
  VSB - VISIBILITY
$$



USA.gov is the U.S. government's official web portal to all federal, state and local government web resources and services.